When you browse on this site, cookies collect data to enhance your experience and personalize the content and advertising you see.
Visit our Privacy Policy to learn more. By continuing to use the site, you agree to this use of cookies and data.
  • In Netherlands
  • List of Countries
  • For 7 days
  • Water Temperature
  • Satellite Maps
  • Weather Map
  • Weather Widgets
  • user-avatar
    Login

    Hourly Weather Golub Dobrzyń

    Today, 24 June, Monday

    Time Temperature Precipitation Wind Pressure Humidity
    00:00 +13°C° 0 mm 3 mps 761 mmHg 92%
    01:00 +12°C° 0 mm 3 mps 761 mmHg 93%
    02:00 +12°C° 0 mm 3 mps 761 mmHg 92%
    03:00 +12°C° 0 mm 3 mps 761 mmHg 92%
    04:00 +13°C° 0 mm 2 mps 761 mmHg 91%
    05:00 +14°C° 0 mm 3 mps 761 mmHg 88%
    06:00 +16°C° 0 mm 3 mps 762 mmHg 84%
    07:00 +18°C° 0 mm 3 mps 762 mmHg 81%
    08:00 +20°C° 0 mm 3 mps 762 mmHg 75%
    09:00 +22°C° 0 mm 3 mps 762 mmHg 69%
    10:00 +24°C° 0 mm 3 mps 762 mmHg 63%
    11:00 +25°C° 0 mm 3 mps 762 mmHg 60%
    12:00 +26°C° 0 mm 3 mps 762 mmHg 57%
    13:00 +27°C° 0 mm 3 mps 762 mmHg 55%
    14:00 +27°C° 0 mm 3 mps 762 mmHg 56%
    15:00 +27°C° 0 mm 3 mps 762 mmHg 56%
    16:00 +27°C° 0 mm 3 mps 762 mmHg 57%
    17:00 +25°C° 0 mm 3 mps 762 mmHg 63%
    18:00 +24°C° 0 mm 3 mps 762 mmHg 69%
    19:00 +23°C° 0 mm 2 mps 762 mmHg 76%
    20:00 +21°C° 0 mm 3 mps 763 mmHg 78%
    21:00 +19°C° 0 mm 3 mps 763 mmHg 80%
    22:00 +18°C° 0 mm 3 mps 763 mmHg 82%
    23:00 +17°C° 0 mm 3 mps 763 mmHg 82%

    Tomorrow, 25 June, Tuesday

    Time Temperature Precipitation Wind Pressure Humidity
    00:00 +17°C° 0 mm 3 mps 764 mmHg 82%
    01:00 +16°C° 0 mm 3 mps 764 mmHg 82%
    02:00 +16°C° 0 mm 3 mps 764 mmHg 84%
    03:00 +14°C° 0 mm 3 mps 763 mmHg 87%
    04:00 +14°C° 0 mm 3 mps 763 mmHg 89%
    05:00 +17°C° 0 mm 3 mps 763 mmHg 85%
    06:00 +18°C° 0 mm 3 mps 763 mmHg 81%
    07:00 +20°C° 0 mm 4 mps 764 mmHg 76%
    08:00 +21°C° 0 mm 4 mps 763 mmHg 71%
    09:00 +23°C° 0 mm 4 mps 763 mmHg 66%
    10:00 +25°C° 0 mm 4 mps 763 mmHg 61%
    11:00 +26°C° 0 mm 4 mps 763 mmHg 58%
    12:00 +27°C° 0 mm 4 mps 763 mmHg 57%
    13:00 +27°C° 0 mm 4 mps 763 mmHg 56%
    14:00 +27°C° 0 mm 4 mps 763 mmHg 56%
    15:00 +28°C° 0 mm 4 mps 762 mmHg 57%
    16:00 +28°C° 0 mm 3 mps 762 mmHg 57%
    17:00 +27°C° 0 mm 3 mps 762 mmHg 62%
    18:00 +25°C° 0 mm 3 mps 762 mmHg 68%
    19:00 +24°C° 0 mm 2 mps 762 mmHg 73%
    20:00 +22°C° 0 mm 3 mps 762 mmHg 74%
    21:00 +20°C° 0 mm 3 mps 762 mmHg 76%
    22:00 +19°C° 0 mm 3 mps 762 mmHg 77%
    23:00 +19°C° 0 mm 3 mps 762 mmHg 77%

    Day after tomorrow, 26 June, Wednesday

    Time Temperature Precipitation Wind Pressure Humidity
    00:00 +18°C° 0 mm 3 mps 762 mmHg 77%
    01:00 +18°C° 0 mm 3 mps 762 mmHg 77%
    02:00 +18°C° 0 mm 3 mps 761 mmHg 80%
    03:00 +17°C° 0 mm 3 mps 761 mmHg 83%
    04:00 +17°C° 0 mm 3 mps 761 mmHg 86%
    05:00 +18°C° 0 mm 3 mps 761 mmHg 83%
    06:00 +20°C° 0 mm 3 mps 761 mmHg 80%
    07:00 +22°C° 0 mm 3 mps 760 mmHg 77%
    08:00 +24°C° 0 mm 3 mps 760 mmHg 72%
    09:00 +26°C° 0 mm 3 mps 760 mmHg 66%
    10:00 +28°C° 0 mm 3 mps 760 mmHg 61%
    11:00 +28°C° 0 mm 3 mps 759 mmHg 59%
    12:00 +29°C° 0 mm 3 mps 759 mmHg 58%
    13:00 +30°C° 0 mm 3 mps 759 mmHg 57%
    14:00 +31°C° 0 mm 3 mps 758 mmHg 58%
    15:00 +31°C° 0 mm 3 mps 757 mmHg 59%
    16:00 +31°C° 0 mm 3 mps 757 mmHg 60%
    17:00 +30°C° 0 mm 3 mps 756 mmHg 65%
    18:00 +30°C° 0 mm 3 mps 756 mmHg 70%
    19:00 +29°C° 0 mm 3 mps 755 mmHg 75%
    20:00 +28°C° 0.1 mm 3 mps 755 mmHg 77%
    21:00 +27°C° 0.1 mm 3 mps 755 mmHg 78%
    22:00 +26°C° 0.1 mm 3 mps 755 mmHg 80%
    23:00 +25°C° 1.6 mm 3 mps 754 mmHg 85%

    27 June, Thursday

    Time Temperature Precipitation Wind Pressure Humidity
    00:00 +24°C° 1.6 mm 3 mps 754 mmHg 89%
    01:00 +22°C° 1.6 mm 3 mps 754 mmHg 94%
    02:00 +22°C° 0.1 mm 4 mps 753 mmHg 95%
    03:00 +21°C° 0.1 mm 4 mps 753 mmHg 96%
    04:00 +20°C° 0.1 mm 4 mps 753 mmHg 96%
    05:00 +21°C° 0 mm 5 mps 753 mmHg 92%
    06:00 +21°C° 0 mm 7 mps 753 mmHg 88%
    07:00 +22°C° 0 mm 8 mps 753 mmHg 83%
    08:00 +22°C° 0.1 mm 7 mps 754 mmHg 81%
    09:00 +23°C° 0.1 mm 7 mps 754 mmHg 79%
    10:00 +23°C° 0.1 mm 7 mps 755 mmHg 77%
    11:00 +23°C° 0.3 mm 7 mps 755 mmHg 75%
    12:00 +23°C° 0.3 mm 7 mps 755 mmHg 72%
    13:00 +24°C° 0.3 mm 7 mps 755 mmHg 70%
    14:00 +23°C° 0.2 mm 7 mps 755 mmHg 70%
    15:00 +23°C° 0.2 mm 6 mps 755 mmHg 69%
    16:00 +22°C° 0.2 mm 5 mps 755 mmHg 69%
    17:00 +21°C° 0 mm 5 mps 755 mmHg 72%
    18:00 +20°C° 0 mm 4 mps 755 mmHg 75%
    19:00 +19°C° 0 mm 3 mps 755 mmHg 77%
    20:00 +18°C° 0 mm 2 mps 755 mmHg 80%
    21:00 +16°C° 0 mm 1 mps 755 mmHg 84%
    22:00 +14°C° 0 mm 0 mps 755 mmHg 87%
    23:00 +14°C° 0 mm 0 mps 755 mmHg 86%

    28 June, Friday

    Time Temperature Precipitation Wind Pressure Humidity
    00:00 +14°C° 0 mm 1 mps 755 mmHg 86%
    01:00 +14°C° 0 mm 1 mps 755 mmHg 86%
    02:00 +14°C° 0 mm 1 mps 754 mmHg 88%
    03:00 +14°C° 0 mm 2 mps 754 mmHg 90%
    04:00 +14°C° 0 mm 2 mps 754 mmHg 92%
    05:00 +14°C° 0 mm 3 mps 754 mmHg 88%
    06:00 +17°C° 0 mm 4 mps 753 mmHg 85%
    07:00 +17°C° 0 mm 5 mps 753 mmHg 81%
    08:00 +19°C° 0 mm 5 mps 753 mmHg 78%
    09:00 +20°C° 0 mm 5 mps 754 mmHg 74%
    10:00 +21°C° 0 mm 5 mps 754 mmHg 71%
    11:00 +21°C° 0.1 mm 6 mps 754 mmHg 65%
    12:00 +22°C° 0.1 mm 7 mps 754 mmHg 59%
    13:00 +23°C° 0.1 mm 7 mps 754 mmHg 53%
    14:00 +22°C° 0 mm 7 mps 755 mmHg 55%
    15:00 +22°C° 0 mm 6 mps 755 mmHg 57%
    16:00 +21°C° 0 mm 6 mps 755 mmHg 59%
    17:00 +19°C° 0 mm 5 mps 755 mmHg 63%
    18:00 +18°C° 0 mm 4 mps 755 mmHg 67%
    19:00 +15°C° 0 mm 4 mps 755 mmHg 70%
    20:00 +14°C° 0 mm 3 mps 756 mmHg 72%
    21:00 +14°C° 0 mm 2 mps 756 mmHg 73%
    22:00 +12°C° 0 mm 1 mps 756 mmHg 75%
    23:00 +12°C° 0 mm 1 mps 756 mmHg 75%

    29 June, Saturday

    Time Temperature Precipitation Wind Pressure Humidity
    00:00 +12°C° 0 mm 1 mps 756 mmHg 74%
    01:00 +12°C° 0 mm 1 mps 756 mmHg 74%
    02:00 +12°C° 0 mm 2 mps 755 mmHg 73%
    03:00 +12°C° 0 mm 2 mps 755 mmHg 72%
    04:00 +11°C° 0 mm 3 mps 755 mmHg 72%
    05:00 +13°C° 0 mm 3 mps 755 mmHg 70%
    06:00 +14°C° 0 mm 3 mps 755 mmHg 69%
    07:00 +15°C° 0 mm 4 mps 754 mmHg 67%
    08:00 +18°C° 0.3 mm 4 mps 754 mmHg 67%
    09:00 +19°C° 0.3 mm 4 mps 754 mmHg 67%
    10:00 +21°C° 0.3 mm 4 mps 754 mmHg 67%
    11:00 +22°C° 0 mm 4 mps 754 mmHg 61%
    12:00 +22°C° 0 mm 5 mps 754 mmHg 55%
    13:00 +23°C° 0 mm 5 mps 754 mmHg 49%
    14:00 +23°C° 0 mm 5 mps 754 mmHg 49%
    15:00 +22°C° 0 mm 4 mps 754 mmHg 48%
    16:00 +22°C° 0 mm 4 mps 754 mmHg 48%
    17:00 +21°C° 0 mm 4 mps 755 mmHg 54%
    18:00 +19°C° 0 mm 3 mps 755 mmHg 61%
    19:00 +18°C° 0 mm 3 mps 755 mmHg 67%
    20:00 +16°C° 0 mm 2 mps 755 mmHg 70%
    21:00 +15°C° 0 mm 1 mps 756 mmHg 73%
    22:00 +13°C° 0 mm 1 mps 756 mmHg 76%
    23:00 +13°C° 0 mm 1 mps 756 mmHg 77%
    Show more